UAL44 KSFO-LSZH

Flight info

Callsign UAL44
Flight time N/A
Altitude 35000
Route SNTNA2 ORRCA DCT FMG DCT DBS DCT BIL DCT UDBOX/N0483F370 DCT 54N090W 57N080W 59N070W DCT RODBO/N0483F390 DCT MIBNO/M083F390 DCT MAXAR DCT 62N050W 62N040W 61N030W 58N020W/N0484F390 DCT SOVED DCT RINUS/N0483F410 DCT LIPGO DCT NUCHU DCT BOGNA UL612 VEULE DCT TEPRI DCT MANAG DCT PEVIT DCT BLM
Aircraft B772/H-SDE2E3FGHIJ5LORVWXY/LB1D1

Departure

Time N/A
Airport San Francisco International Airport (KSFO)

Arrival

Time 2026-05-08 07:13
Airport Zürich Airport (LSZH)
Time Latitude Longitude Altitude Speed Heading
2026-05-08 03:42 61.43705 -33.46292 36331 ft 500 kts 100°
2026-05-08 03:42 61.42913 -33.39235 36692 ft 498 kts 100°
2026-05-08 03:42 61.42118 -33.32192 37015 ft 497 kts 100°
2026-05-08 03:42 61.41323 -33.25174 37294 ft 497 kts 100°
2026-05-08 03:43 61.40522 -33.18136 37363 ft 500 kts 100°
2026-05-08 03:43 61.38903 -33.04011 37397 ft 499 kts 100°
2026-05-08 03:44 61.37281 -32.90037 37409 ft 495 kts 100°
2026-05-08 03:44 61.35652 -32.76110 37409 ft 494 kts 100°
2026-05-08 03:45 61.34008 -32.62195 37410 ft 494 kts 100°
2026-05-08 03:45 61.32349 -32.48286 37414 ft 495 kts 100°
2026-05-08 03:46 61.30687 -32.34489 37417 ft 495 kts 100°
2026-05-08 03:46 61.28996 -32.20582 37419 ft 496 kts 100°
2026-05-08 03:47 61.27289 -32.06684 37416 ft 497 kts 100°
2026-05-08 03:47 61.25564 -31.92760 37419 ft 498 kts 100°
2026-05-08 03:48 61.23822 -31.78839 37420 ft 498 kts 100°
2026-05-08 03:48 61.22066 -31.64931 37419 ft 498 kts 100°
2026-05-08 03:49 61.20292 -31.51008 37419 ft 498 kts 100°
2026-05-08 03:49 61.18506 -31.37121 37422 ft 498 kts 100°
2026-05-08 03:50 61.16707 -31.23261 37421 ft 498 kts 100°
2026-05-08 03:50 61.14906 -31.09501 37419 ft 498 kts 100°
2026-05-08 03:51 61.13082 -30.95695 37416 ft 497 kts 100°
2026-05-08 03:51 61.11244 -30.81902 37423 ft 497 kts 100°
2026-05-08 03:52 61.09393 -30.68133 37417 ft 497 kts 100°
2026-05-08 03:52 61.07529 -30.54382 37419 ft 497 kts 100°
2026-05-08 03:53 61.05652 -30.40652 37419 ft 497 kts 100°
2026-05-08 03:53 61.03763 -30.26956 37415 ft 497 kts 100°
2026-05-08 03:54 61.01858 -30.13241 37415 ft 497 kts 100°
2026-05-08 03:54 60.99846 -29.99680 37426 ft 500 kts 105°
2026-05-08 03:55 60.96906 -29.86585 37421 ft 505 kts 111°
2026-05-08 03:55 60.93723 -29.73688 37418 ft 506 kts 112°
2026-05-08 03:56 60.91081 -29.62966 37403 ft 506 kts 111°
2026-05-08 03:56 60.87922 -29.50063 37414 ft 506 kts 111°
2026-05-08 03:57 60.84762 -29.37150 37412 ft 506 kts 111°
2026-05-08 03:57 60.81590 -29.24254 37412 ft 507 kts 111°
2026-05-08 03:58 60.78399 -29.11371 37410 ft 507 kts 111°
2026-05-08 03:58 60.75192 -28.98504 37408 ft 508 kts 111°
2026-05-08 03:59 60.71967 -28.85640 37407 ft 508 kts 111°
2026-05-08 03:59 60.68730 -28.72805 37408 ft 509 kts 111°
2026-05-08 04:00 60.65477 -28.59978 37400 ft 509 kts 111°
2026-05-08 04:00 60.62215 -28.47192 37400 ft 509 kts 111°
2026-05-08 04:01 60.58957 -28.34493 37398 ft 509 kts 111°
2026-05-08 04:01 60.55670 -28.21754 37382 ft 509 kts 111°
2026-05-08 04:02 60.52369 -28.09031 37389 ft 509 kts 112°
2026-05-08 04:02 60.49056 -27.96334 37411 ft 509 kts 112°
2026-05-08 04:03 60.45727 -27.83655 37388 ft 509 kts 112°
2026-05-08 04:03 60.40842 -27.65176 37400 ft 508 kts 112°
2026-05-08 04:04 60.37500 -27.52617 37397 ft 508 kts 112°
2026-05-08 04:04 60.34125 -27.40007 37382 ft 508 kts 112°
2026-05-08 04:05 60.30766 -27.27527 37383 ft 508 kts 112°
2026-05-08 04:05 60.27389 -27.15049 37378 ft 507 kts 112°
2026-05-08 04:06 60.23991 -27.02561 37378 ft 507 kts 113°
2026-05-08 04:06 60.20608 -26.90196 37368 ft 506 kts 113°
2026-05-08 04:07 60.17215 -26.77863 37373 ft 506 kts 113°
2026-05-08 04:07 60.13788 -26.65474 37363 ft 506 kts 113°
2026-05-08 04:08 60.10379 -26.53215 37367 ft 505 kts 114°
2026-05-08 04:08 60.06942 -26.40926 37361 ft 505 kts 114°
2026-05-08 04:09 60.03492 -26.28655 37342 ft 505 kts 114°
2026-05-08 04:09 60.00047 -26.16465 37350 ft 505 kts 114°
2026-05-08 04:10 59.96576 -26.04250 37351 ft 505 kts 114°
2026-05-08 04:10 59.93095 -25.92066 37346 ft 505 kts 115°
2026-05-08 04:11 59.89606 -25.79915 37349 ft 505 kts 115°
2026-05-08 04:11 59.86126 -25.67863 37338 ft 505 kts 115°
2026-05-08 04:12 59.82599 -25.55706 37514 ft 509 kts 116°
2026-05-08 04:12 59.80823 -25.49609 37772 ft 509 kts 116°
2026-05-08 04:12 59.79052 -25.43551 38052 ft 507 kts 116°
2026-05-08 04:13 59.77278 -25.37496 38309 ft 507 kts 116°
2026-05-08 04:13 59.75502 -25.31454 38552 ft 506 kts 117°
2026-05-08 04:13 59.73720 -25.25402 38758 ft 506 kts 117°
2026-05-08 04:13 59.71944 -25.19389 38996 ft 506 kts 117°
2026-05-08 04:14 59.70164 -25.13375 39159 ft 506 kts 117°
2026-05-08 04:14 59.68378 -25.07355 39243 ft 508 kts 117°
2026-05-08 04:14 59.64809 -24.95373 39313 ft 508 kts 117°
2026-05-08 04:15 59.61214 -24.83375 39313 ft 506 kts 117°
2026-05-08 04:15 59.57624 -24.71454 39293 ft 504 kts 118°
2026-05-08 04:16 59.54039 -24.59608 39305 ft 502 kts 118°
2026-05-08 04:16 59.50448 -24.47802 39302 ft 502 kts 118°
2026-05-08 04:17 59.46862 -24.36070 39303 ft 503 kts 118°
2026-05-08 04:17 59.43243 -24.24292 39299 ft 504 kts 118°
2026-05-08 04:18 59.39609 -24.12524 39303 ft 505 kts 118°
2026-05-08 04:18 59.35947 -24.00727 39294 ft 506 kts 118°
2026-05-08 04:19 59.32265 -23.88925 39290 ft 507 kts 119°
2026-05-08 04:19 59.28571 -23.77144 39287 ft 508 kts 119°
2026-05-08 04:20 59.24872 -23.65408 39283 ft 508 kts 119°
2026-05-08 04:20 59.21309 -23.54159 39273 ft 508 kts 119°
2026-05-08 04:21 59.17582 -23.42447 39272 ft 507 kts 120°
2026-05-08 04:21 59.13862 -23.30817 39272 ft 507 kts 120°
2026-05-08 04:22 59.10129 -23.19204 39273 ft 506 kts 120°
2026-05-08 04:22 59.06376 -23.07586 39265 ft 506 kts 120°
2026-05-08 04:23 59.02623 -22.96024 39270 ft 505 kts 120°
2026-05-08 04:23 58.98868 -22.84514 39253 ft 505 kts 120°
2026-05-08 04:24 58.95112 -22.73058 39261 ft 505 kts 120°
2026-05-08 04:24 58.91340 -22.61607 39259 ft 505 kts 121°
2026-05-08 04:25 58.87547 -22.50148 39245 ft 505 kts 121°
2026-05-08 04:25 58.83771 -22.38798 39242 ft 505 kts 121°
2026-05-08 04:26 58.79940 -22.27337 39242 ft 505 kts 121°
2026-05-08 04:26 58.76119 -22.15960 39241 ft 506 kts 121°
2026-05-08 04:27 58.72299 -22.04642 39238 ft 506 kts 121°
2026-05-08 04:27 58.68451 -21.93295 39234 ft 507 kts 121°
2026-05-08 04:28 58.64607 -21.82014 39230 ft 507 kts 122°
2026-05-08 04:28 58.60714 -21.70642 39229 ft 508 kts 122°
2026-05-08 04:29 58.56813 -21.59305 39226 ft 508 kts 122°
2026-05-08 04:29 58.52917 -21.48034 39223 ft 509 kts 122°
2026-05-08 04:30 58.48998 -21.36749 39223 ft 509 kts 122°
2026-05-08 04:30 58.45100 -21.25581 39220 ft 509 kts 122°
2026-05-08 04:31 58.41149 -21.14311 39221 ft 510 kts 123°
2026-05-08 04:31 58.37189 -21.03071 39215 ft 510 kts 123°
2026-05-08 04:32 58.33213 -20.91837 39215 ft 510 kts 123°
2026-05-08 04:32 58.29266 -20.80740 39213 ft 511 kts 123°
2026-05-08 04:33 58.25264 -20.69537 39207 ft 511 kts 123°
2026-05-08 04:33 58.21266 -20.58399 39207 ft 511 kts 123°
2026-05-08 04:34 58.17251 -20.47266 39203 ft 511 kts 124°
2026-05-08 04:34 58.13234 -20.36177 39199 ft 511 kts 124°
2026-05-08 04:35 58.09207 -20.25114 39199 ft 511 kts 124°
2026-05-08 04:35 58.05162 -20.14049 39198 ft 510 kts 124°
2026-05-08 04:36 58.01134 -20.03077 39195 ft 510 kts 124°
2026-05-08 04:36 57.97472 -19.91738 39196 ft 501 kts 118°
2026-05-08 04:37 57.94121 -19.80236 39193 ft 504 kts 118°
2026-05-08 04:37 57.90755 -19.68713 39188 ft 502 kts 119°
2026-05-08 04:38 57.87362 -19.57257 39198 ft 504 kts 119°
2026-05-08 04:38 57.83928 -19.45773 39171 ft 503 kts 120°
2026-05-08 04:39 57.80491 -19.34345 39183 ft 504 kts 120°
2026-05-08 04:39 57.77022 -19.22860 39177 ft 505 kts 120°
2026-05-08 04:40 57.73558 -19.11446 39172 ft 504 kts 120°
2026-05-08 04:40 57.70082 -19.00047 39172 ft 503 kts 121°
2026-05-08 04:41 57.66618 -18.88747 39166 ft 501 kts 121°
2026-05-08 04:41 57.63124 -18.77396 39178 ft 504 kts 121°
2026-05-08 04:42 57.59652 -18.66174 39172 ft 502 kts 121°
2026-05-08 04:42 57.56124 -18.54826 39162 ft 503 kts 121°
2026-05-08 04:43 57.52628 -18.43627 39166 ft 502 kts 122°
2026-05-08 04:43 57.49696 -18.34282 39156 ft 501 kts 122°
2026-05-08 04:44 57.45589 -18.21257 39161 ft 503 kts 122°
2026-05-08 04:44 57.42646 -18.11963 39152 ft 501 kts 122°
2026-05-08 04:45 57.38505 -17.98948 39144 ft 498 kts 122°
2026-05-08 04:45 57.35537 -17.89662 39154 ft 504 kts 122°
2026-05-08 04:46 57.31979 -17.78583 39141 ft 498 kts 123°
2026-05-08 04:46 57.28396 -17.67480 39158 ft 505 kts 123°
2026-05-08 04:47 57.24832 -17.56478 39133 ft 497 kts 123°
2026-05-08 04:47 57.21250 -17.45477 39141 ft 501 kts 123°
2026-05-08 04:48 57.17649 -17.34469 39131 ft 497 kts 123°
2026-05-08 04:48 57.14055 -17.23532 39130 ft 501 kts 123°
2026-05-08 04:49 57.10462 -17.12651 39141 ft 498 kts 123°
2026-05-08 04:49 57.06853 -17.01763 39136 ft 499 kts 123°
2026-05-08 04:50 57.03246 -16.90934 39135 ft 498 kts 124°
2026-05-08 04:50 56.99588 -16.80014 39129 ft 499 kts 124°
2026-05-08 04:51 56.95980 -16.69276 39134 ft 499 kts 124°
2026-05-08 04:51 56.92316 -16.58431 39130 ft 504 kts 124°
2026-05-08 04:52 56.88596 -16.47466 39125 ft 508 kts 124°
2026-05-08 04:52 56.84855 -16.36487 39116 ft 510 kts 124°
2026-05-08 04:53 56.81117 -16.25566 39113 ft 509 kts 124°
2026-05-08 04:53 56.77363 -16.14646 39100 ft 503 kts 124°
2026-05-08 04:54 56.73648 -16.03890 39106 ft 500 kts 124°
2026-05-08 04:54 56.69926 -15.93165 39109 ft 499 kts 124°
2026-05-08 04:55 56.66231 -15.82567 39102 ft 499 kts 124°
2026-05-08 04:55 56.62483 -15.71862 39110 ft 500 kts 125°
2026-05-08 04:56 56.58731 -15.61194 39097 ft 501 kts 125°
2026-05-08 04:56 56.54976 -15.50561 39101 ft 502 kts 125°
2026-05-08 04:57 56.51211 -15.39949 39100 ft 503 kts 125°
2026-05-08 04:57 56.47418 -15.29304 39098 ft 504 kts 125°
2026-05-08 04:58 56.43599 -15.18631 39092 ft 504 kts 125°
2026-05-08 04:58 56.39793 -15.08042 39087 ft 504 kts 125°
2026-05-08 04:59 56.35961 -14.97428 39087 ft 503 kts 126°
2026-05-08 04:59 56.32132 -14.86868 39085 ft 503 kts 126°
2026-05-08 05:00 56.28309 -14.76370 39087 ft 502 kts 126°
2026-05-08 05:00 56.24461 -14.65849 39080 ft 502 kts 126°
2026-05-08 05:01 56.20600 -14.55340 39074 ft 501 kts 126°
2026-05-08 05:01 56.16763 -14.44938 39073 ft 501 kts 126°
2026-05-08 05:02 56.12932 -14.34597 39074 ft 500 kts 127°
2026-05-08 05:02 56.09062 -14.24195 39077 ft 499 kts 127°
2026-05-08 05:03 56.05227 -14.13929 39085 ft 499 kts 127°
2026-05-08 05:03 56.01346 -14.03577 39070 ft 498 kts 127°
2026-05-08 05:04 55.97676 -13.93114 39072 ft 499 kts 123°
2026-05-08 05:04 55.94188 -13.82400 39071 ft 499 kts 123°
2026-05-08 05:05 55.90721 -13.71737 39072 ft 499 kts 123°
2026-05-08 05:05 55.87200 -13.61023 39065 ft 498 kts 123°
2026-05-08 05:06 55.83681 -13.50410 39064 ft 498 kts 123°
2026-05-08 05:06 55.80151 -13.39819 39059 ft 497 kts 124°
2026-05-08 05:07 55.76633 -13.29309 39061 ft 497 kts 124°
2026-05-08 05:07 55.73077 -13.18729 39057 ft 496 kts 124°
2026-05-08 05:08 55.69553 -13.08287 39058 ft 496 kts 124°
2026-05-08 05:08 55.66010 -12.97834 39052 ft 495 kts 124°
2026-05-08 05:09 55.62445 -12.87362 39060 ft 494 kts 124°
2026-05-08 05:09 55.58895 -12.76979 39053 ft 493 kts 124°
2026-05-08 05:10 55.53553 -12.61437 39053 ft 492 kts 124°
2026-05-08 05:11 55.49989 -12.51124 39053 ft 492 kts 125°
2026-05-08 05:11 55.46445 -12.40912 39052 ft 491 kts 125°
2026-05-08 05:12 55.42859 -12.30621 39050 ft 491 kts 125°
2026-05-08 05:12 55.39295 -12.20440 39050 ft 491 kts 125°
2026-05-08 05:13 55.35701 -12.10211 39048 ft 490 kts 125°
2026-05-08 05:13 55.32117 -12.00057 39046 ft 490 kts 125°
2026-05-08 05:14 55.28512 -11.89884 39046 ft 491 kts 125°
2026-05-08 05:14 55.24881 -11.79679 39043 ft 491 kts 125°
2026-05-08 05:15 55.21273 -11.69582 39041 ft 491 kts 125°
2026-05-08 05:15 55.17655 -11.59498 39042 ft 491 kts 125°
2026-05-08 05:16 55.13991 -11.49331 39044 ft 491 kts 125°
2026-05-08 05:16 55.10331 -11.39212 39040 ft 491 kts 125°
2026-05-08 05:17 55.06696 -11.29206 39038 ft 492 kts 126°
2026-05-08 05:17 55.03007 -11.19094 39037 ft 492 kts 126°
2026-05-08 05:18 54.99332 -11.09060 39037 ft 492 kts 126°
2026-05-08 05:18 54.95664 -10.99085 39037 ft 491 kts 126°
2026-05-08 05:19 54.91969 -10.89078 39038 ft 491 kts 126°
2026-05-08 05:19 54.88272 -10.79105 39037 ft 491 kts 126°
2026-05-08 05:20 54.84575 -10.69174 39036 ft 491 kts 126°
2026-05-08 05:20 54.80854 -10.59219 39033 ft 491 kts 126°
2026-05-08 05:21 54.77148 -10.49342 39032 ft 490 kts 126°
2026-05-08 05:21 54.73408 -10.39414 39034 ft 490 kts 126°
2026-05-08 05:22 54.69680 -10.29558 39036 ft 490 kts 126°
2026-05-08 05:22 54.65950 -10.19738 39032 ft 490 kts 126°
2026-05-08 05:23 54.62196 -10.09892 39043 ft 490 kts 126°
2026-05-08 05:23 54.58464 -10.00143 39044 ft 490 kts 126°
2026-05-08 05:24 54.54694 -9.90332 39041 ft 489 kts 126°
2026-05-08 05:24 54.50941 -9.80606 39027 ft 490 kts 126°
2026-05-08 05:25 54.47164 -9.70854 39039 ft 489 kts 126°
2026-05-08 05:25 54.43361 -9.61073 39035 ft 489 kts 126°
2026-05-08 05:26 54.39604 -9.51451 39033 ft 489 kts 126°
2026-05-08 05:26 54.35802 -9.41748 39036 ft 490 kts 126°
2026-05-08 05:27 54.31976 -9.32024 39034 ft 490 kts 126°
2026-05-08 05:27 54.28182 -9.22419 39030 ft 490 kts 126°
2026-05-08 05:28 54.24339 -9.12725 39030 ft 490 kts 126°
2026-05-08 05:28 54.20519 -9.03128 39028 ft 490 kts 127°
2026-05-08 05:29 54.16683 -8.93527 39024 ft 490 kts 127°
2026-05-08 05:29 54.12841 -8.83949 39026 ft 490 kts 127°
2026-05-08 05:30 54.08991 -8.74386 39022 ft 490 kts 127°
2026-05-08 05:30 54.05743 -8.66347 39023 ft 490 kts 127°
2026-05-08 05:31 54.01906 -8.56883 39020 ft 490 kts 127°
2026-05-08 05:31 53.97385 -8.45779 39017 ft 490 kts 127°
2026-05-08 05:32 53.94137 -8.37832 39020 ft 490 kts 127°
2026-05-08 05:32 53.90247 -8.28346 39014 ft 490 kts 127°
2026-05-08 05:33 53.86353 -8.18887 39016 ft 490 kts 127°
2026-05-08 05:33 53.82427 -8.09386 39014 ft 490 kts 127°
2026-05-08 05:34 53.78538 -8.00007 39014 ft 490 kts 127°
2026-05-08 05:34 53.74608 -7.90566 39009 ft 490 kts 127°
2026-05-08 05:35 53.70679 -7.81160 39009 ft 490 kts 128°
2026-05-08 05:35 53.66730 -7.71739 39009 ft 490 kts 128°
2026-05-08 05:36 53.63213 -7.61946 39011 ft 493 kts 117°
2026-05-08 05:36 53.60482 -7.51322 39011 ft 494 kts 115°
2026-05-08 05:37 53.57814 -7.40735 39009 ft 494 kts 115°
2026-05-08 05:37 53.55092 -7.30119 39010 ft 494 kts 115°
2026-05-08 05:38 53.52336 -7.19527 39014 ft 495 kts 117°
2026-05-08 05:38 53.49545 -7.08880 39019 ft 504 kts 117°
2026-05-08 05:39 53.46697 -6.98058 39010 ft 507 kts 117°
2026-05-08 05:39 53.43837 -6.87225 39074 ft 508 kts 117°
2026-05-08 05:39 53.42407 -6.81828 39305 ft 506 kts 117°
2026-05-08 05:40 53.40979 -6.76450 39554 ft 503 kts 117°
2026-05-08 05:40 53.39572 -6.71164 39790 ft 502 kts 117°
2026-05-08 05:40 53.38149 -6.65832 39985 ft 501 kts 117°
2026-05-08 05:40 53.36722 -6.60502 40146 ft 501 kts 117°
2026-05-08 05:41 53.35298 -6.55193 40288 ft 501 kts 117°
2026-05-08 05:41 53.33867 -6.49872 40439 ft 501 kts 117°
2026-05-08 05:41 53.32433 -6.44554 40604 ft 501 kts 117°
2026-05-08 05:41 53.31002 -6.39253 40762 ft 500 kts 117°
2026-05-08 05:42 53.29568 -6.33957 40900 ft 500 kts 117°
2026-05-08 05:42 53.26678 -6.23320 41000 ft 503 kts 117°
2026-05-08 05:43 53.23782 -6.12707 41010 ft 501 kts 117°
2026-05-08 05:43 53.20889 -6.02150 41010 ft 499 kts 117°
2026-05-08 05:44 53.18012 -5.91703 41017 ft 498 kts 117°
2026-05-08 05:44 53.15171 -5.81435 41021 ft 497 kts 117°
2026-05-08 05:45 53.12261 -5.70960 41020 ft 497 kts 117°
2026-05-08 05:45 53.09365 -5.60577 41022 ft 497 kts 117°
2026-05-08 05:46 53.06387 -5.50126 41027 ft 496 kts 120°
2026-05-08 05:46 53.02793 -5.40390 41031 ft 495 kts 126°
2026-05-08 05:47 52.99000 -5.30821 41029 ft 496 kts 126°
2026-05-08 05:47 52.95235 -5.21307 41032 ft 497 kts 126°
2026-05-08 05:48 52.91448 -5.11673 41033 ft 498 kts 126°
2026-05-08 05:48 52.87668 -5.02057 41038 ft 498 kts 126°
2026-05-08 05:49 52.83876 -4.92444 41038 ft 498 kts 126°
2026-05-08 05:49 52.80081 -4.82863 41043 ft 498 kts 126°
2026-05-08 05:50 52.76291 -4.73337 41036 ft 498 kts 126°
2026-05-08 05:50 52.72477 -4.63785 41041 ft 498 kts 126°
2026-05-08 05:51 52.68654 -4.54248 41034 ft 498 kts 126°
2026-05-08 05:51 52.64830 -4.44745 41037 ft 497 kts 126°
2026-05-08 05:52 52.61015 -4.35298 41037 ft 497 kts 126°
2026-05-08 05:52 52.57183 -4.25843 41039 ft 497 kts 126°
2026-05-08 05:53 52.53334 -4.16383 41040 ft 497 kts 126°
2026-05-08 05:53 52.49484 -4.06955 41041 ft 498 kts 126°
2026-05-08 05:54 52.45617 -3.97520 41042 ft 498 kts 126°
2026-05-08 05:54 52.41744 -3.88106 41045 ft 498 kts 126°
2026-05-08 05:55 52.37859 -3.78696 41048 ft 499 kts 126°
2026-05-08 05:55 52.33966 -3.69303 41049 ft 499 kts 126°
2026-05-08 05:56 52.30068 -3.59929 41051 ft 499 kts 126°
2026-05-08 05:56 52.26155 -3.50557 41050 ft 499 kts 126°
2026-05-08 05:57 52.22243 -3.41222 41064 ft 499 kts 126°
2026-05-08 05:57 52.18314 -3.31878 41047 ft 499 kts 126°
2026-05-08 05:58 52.14387 -3.22573 41060 ft 499 kts 126°
2026-05-08 05:58 52.10476 -3.13339 41056 ft 498 kts 126°
2026-05-08 05:59 52.06531 -3.04060 41056 ft 498 kts 127°
2026-05-08 05:59 52.02586 -2.94814 41062 ft 498 kts 127°
2026-05-08 06:00 51.98636 -2.85589 41058 ft 497 kts 127°
2026-05-08 06:00 51.94676 -2.76372 41062 ft 497 kts 127°
2026-05-08 06:01 51.90718 -2.67194 41064 ft 497 kts 127°
2026-05-08 06:01 51.86746 -2.58019 41062 ft 497 kts 127°
2026-05-08 06:02 51.82776 -2.48878 41059 ft 497 kts 127°
2026-05-08 06:02 51.78804 -2.39765 41050 ft 496 kts 127°
2026-05-08 06:03 51.74844 -2.30711 41051 ft 496 kts 127°
2026-05-08 06:03 51.70857 -2.21628 41058 ft 496 kts 127°
2026-05-08 06:04 51.66865 -2.12567 41052 ft 496 kts 127°
2026-05-08 06:04 51.62866 -2.03520 41054 ft 495 kts 127°
2026-05-08 06:05 51.58861 -1.94490 41054 ft 495 kts 127°
2026-05-08 06:05 51.54878 -1.85540 41055 ft 495 kts 127°
2026-05-08 06:06 51.50862 -1.76543 41056 ft 495 kts 127°
2026-05-08 06:06 51.46831 -1.67583 41057 ft 494 kts 129°
2026-05-08 06:07 51.42466 -1.59081 41059 ft 493 kts 132°
2026-05-08 06:07 51.38011 -1.50720 41054 ft 493 kts 132°
2026-05-08 06:08 51.33585 -1.42401 41048 ft 493 kts 132°
2026-05-08 06:08 51.29143 -1.34024 41046 ft 493 kts 132°
2026-05-08 06:09 51.24707 -1.25668 41051 ft 493 kts 132°
2026-05-08 06:09 51.20262 -1.17323 41046 ft 493 kts 132°
2026-05-08 06:10 51.15816 -1.09005 41052 ft 493 kts 132°
2026-05-08 06:10 51.11355 -1.00689 41043 ft 493 kts 132°
2026-05-08 06:11 51.06891 -0.92395 41056 ft 493 kts 132°
2026-05-08 06:11 51.02424 -0.84120 41052 ft 493 kts 132°
2026-05-08 06:12 50.97979 -0.75912 41059 ft 493 kts 133°
2026-05-08 06:12 50.93492 -0.67655 41059 ft 493 kts 133°
2026-05-08 06:13 50.89013 -0.59438 41079 ft 493 kts 133°
2026-05-08 06:13 50.84520 -0.51221 41057 ft 493 kts 133°
2026-05-08 06:14 50.80030 -0.43034 41051 ft 493 kts 133°
2026-05-08 06:14 50.75526 -0.34846 41070 ft 493 kts 133°
2026-05-08 06:15 50.70922 -0.26861 41050 ft 491 kts 139°
2026-05-08 06:15 50.65600 -0.20192 41065 ft 487 kts 149°
2026-05-08 06:16 50.59915 -0.14364 41066 ft 487 kts 149°
2026-05-08 06:16 50.54236 -0.08515 41063 ft 488 kts 149°
2026-05-08 06:17 50.46711 -0.00675 41058 ft 488 kts 149°
2026-05-08 06:17 50.41046 0.05211 41066 ft 488 kts 149°
2026-05-08 06:18 50.35383 0.11090 41067 ft 488 kts 149°
2026-05-08 06:18 50.29718 0.16966 41067 ft 488 kts 149°
2026-05-08 06:19 50.24060 0.22823 41066 ft 488 kts 149°
2026-05-08 06:19 50.18386 0.28674 41066 ft 488 kts 149°
2026-05-08 06:20 50.12708 0.34498 41071 ft 488 kts 149°
2026-05-08 06:20 50.07038 0.40299 41070 ft 488 kts 149°
2026-05-08 06:21 50.01356 0.46099 41072 ft 488 kts 149°
2026-05-08 06:21 49.95710 0.51848 41068 ft 488 kts 149°
2026-05-08 06:22 49.90039 0.57633 41065 ft 488 kts 147°
2026-05-08 06:22 49.85016 0.64319 41074 ft 492 kts 135°
2026-05-08 06:23 49.80407 0.72170 41068 ft 493 kts 134°
2026-05-08 06:23 49.75803 0.80036 41066 ft 493 kts 134°
2026-05-08 06:24 49.71171 0.87850 41070 ft 493 kts 135°
2026-05-08 06:24 49.66510 0.95643 41068 ft 494 kts 135°
2026-05-08 06:25 49.61838 1.03421 41062 ft 494 kts 135°
2026-05-08 06:25 49.57194 1.11134 41057 ft 494 kts 135°
2026-05-08 06:26 49.52506 1.18897 41054 ft 494 kts 135°
2026-05-08 06:26 49.47822 1.26633 41050 ft 494 kts 135°
2026-05-08 06:27 49.43129 1.34360 41049 ft 494 kts 135°
2026-05-08 06:27 49.38426 1.42080 41052 ft 494 kts 135°
2026-05-08 06:28 49.33719 1.49784 41054 ft 494 kts 135°
2026-05-08 06:28 49.29016 1.57456 41061 ft 494 kts 135°
2026-05-08 06:29 49.24309 1.65114 41070 ft 493 kts 135°
2026-05-08 06:29 49.19595 1.72759 41068 ft 493 kts 135°
2026-05-08 06:30 49.14917 1.80325 41071 ft 493 kts 135°
2026-05-08 06:30 49.10195 1.87938 41075 ft 493 kts 135°
2026-05-08 06:31 49.06288 1.94220 41072 ft 493 kts 136°
2026-05-08 06:32 49.03876 1.98091 41075 ft 493 kts 136°
2026-05-08 06:32 48.99140 2.05675 41074 ft 493 kts 136°
2026-05-08 06:33 48.94409 2.13229 41068 ft 493 kts 136°
2026-05-08 06:33 48.89660 2.20788 41045 ft 493 kts 136°
2026-05-08 06:34 48.84944 2.28274 41048 ft 493 kts 136°
2026-05-08 06:34 48.80204 2.35776 41074 ft 493 kts 136°
2026-05-08 06:35 48.75453 2.43274 41076 ft 493 kts 136°
2026-05-08 06:35 48.70691 2.50768 41081 ft 493 kts 136°
2026-05-08 06:36 48.65926 2.58244 41075 ft 493 kts 136°
2026-05-08 06:36 48.61158 2.65707 41075 ft 493 kts 136°
2026-05-08 06:37 48.56668 2.73555 41068 ft 496 kts 124°
2026-05-08 06:37 48.53666 2.82932 41069 ft 500 kts 108°
2026-05-08 06:38 48.51874 2.93102 41068 ft 501 kts 105°
2026-05-08 06:38 48.50193 3.03226 41063 ft 501 kts 105°
2026-05-08 06:39 48.48432 3.13465 41053 ft 501 kts 106°
2026-05-08 06:39 48.46643 3.23547 41050 ft 501 kts 106°
2026-05-08 06:40 48.44819 3.33702 41057 ft 502 kts 107°
2026-05-08 06:40 48.42986 3.43856 41060 ft 502 kts 107°
2026-05-08 06:41 48.41152 3.53983 41047 ft 502 kts 107°
2026-05-08 06:41 48.39307 3.64115 41052 ft 502 kts 107°
2026-05-08 06:42 48.37450 3.74254 41062 ft 502 kts 107°
2026-05-08 06:42 48.35592 3.84352 41076 ft 501 kts 107°
2026-05-08 06:43 48.33717 3.94475 41077 ft 501 kts 107°
2026-05-08 06:43 48.31842 4.04551 41078 ft 501 kts 107°
2026-05-08 06:44 48.29967 4.14573 41077 ft 501 kts 107°
2026-05-08 06:44 48.28069 4.24658 41068 ft 501 kts 107°
2026-05-08 06:45 48.26168 4.34708 41060 ft 501 kts 107°
2026-05-08 06:45 48.24255 4.44766 41056 ft 501 kts 107°
2026-05-08 06:46 48.22334 4.54812 41046 ft 501 kts 107°
2026-05-08 06:46 48.20416 4.64794 41042 ft 501 kts 108°
2026-05-08 06:47 48.18479 4.74818 41051 ft 501 kts 108°
2026-05-08 06:47 48.16531 4.84848 41049 ft 501 kts 108°
2026-05-08 06:48 48.14576 4.94866 41050 ft 501 kts 108°
2026-05-08 06:48 48.12610 5.04885 41051 ft 502 kts 108°
2026-05-08 06:49 48.10635 5.14907 41058 ft 502 kts 108°
2026-05-08 06:49 48.08687 5.24933 41058 ft 502 kts 107°
2026-05-08 06:50 48.06781 5.34975 41059 ft 502 kts 107°
2026-05-08 06:50 48.04868 5.45011 41060 ft 502 kts 108°
2026-05-08 06:51 48.02950 5.54979 41060 ft 502 kts 108°
2026-05-08 06:51 48.01011 5.64979 41061 ft 502 kts 108°
2026-05-08 06:52 47.99058 5.74995 41063 ft 502 kts 108°
2026-05-08 06:52 47.97099 5.84991 41062 ft 501 kts 108°
2026-05-08 06:53 47.95134 5.94970 40990 ft 503 kts 108°
2026-05-08 06:53 47.94138 6.00006 40289 ft 509 kts 108°
2026-05-08 06:53 47.93138 6.05050 39643 ft 506 kts 108°
2026-05-08 06:54 47.92141 6.10075 38951 ft 504 kts 109°
2026-05-08 06:54 47.91144 6.15081 38116 ft 503 kts 109°
2026-05-08 06:54 47.90151 6.20053 37311 ft 499 kts 109°
2026-05-08 06:54 47.89163 6.24988 36552 ft 496 kts 109°
2026-05-08 06:55 47.88178 6.29896 35777 ft 492 kts 109°
2026-05-08 06:55 47.87211 6.34703 34925 ft 491 kts 108°
2026-05-08 06:55 47.86222 6.39603 34347 ft 483 kts 109°
2026-05-08 06:55 47.85261 6.44361 33741 ft 476 kts 109°
2026-05-08 06:56 47.84312 6.49044 33145 ft 469 kts 109°
2026-05-08 06:56 47.83376 6.53656 32614 ft 462 kts 109°
2026-05-08 06:56 47.82451 6.58200 32079 ft 455 kts 109°
2026-05-08 06:56 47.81535 6.62688 31537 ft 450 kts 109°
2026-05-08 06:57 47.80625 6.67134 30843 ft 450 kts 109°
2026-05-08 06:57 47.79711 6.71582 30035 ft 453 kts 109°
2026-05-08 06:57 47.78787 6.76069 29095 ft 453 kts 109°
2026-05-08 06:57 47.77872 6.80504 28200 ft 453 kts 109°
2026-05-08 06:58 47.76950 6.84974 27323 ft 452 kts 109°
2026-05-08 06:58 47.76028 6.89432 26476 ft 451 kts 109°
2026-05-08 06:58 47.75123 6.93808 25616 ft 434 kts 109°
2026-05-08 06:58 47.74250 6.98018 24818 ft 420 kts 109°
2026-05-08 06:59 47.73398 7.02116 24030 ft 415 kts 109°
2026-05-08 06:59 47.72537 7.06234 23199 ft 418 kts 109°
2026-05-08 06:59 47.71673 7.10362 22320 ft 420 kts 109°
2026-05-08 06:59 47.70801 7.14525 21431 ft 422 kts 109°
2026-05-08 07:00 47.69932 7.18668 20616 ft 414 kts 109°
2026-05-08 07:00 47.69091 7.22666 19867 ft 398 kts 109°
2026-05-08 07:00 47.68274 7.26525 19176 ft 389 kts 109°
2026-05-08 07:00 47.67459 7.30361 18537 ft 390 kts 109°
2026-05-08 07:01 47.66642 7.34194 17843 ft 390 kts 109°
2026-05-08 07:01 47.65824 7.38038 17130 ft 390 kts 109°
2026-05-08 07:01 47.65006 7.41875 16462 ft 390 kts 109°
2026-05-08 07:01 47.64191 7.45695 15888 ft 387 kts 109°
2026-05-08 07:02 47.63382 7.49473 15364 ft 383 kts 109°
2026-05-08 07:02 47.62836 7.51955 15023 ft 380 kts 110°
2026-05-08 07:02 47.61981 7.55635 14542 ft 375 kts 110°
2026-05-08 07:02 47.61121 7.59267 14066 ft 372 kts 110°
2026-05-08 07:03 47.60267 7.62868 13549 ft 369 kts 110°
2026-05-08 07:03 47.59428 7.66434 13032 ft 365 kts 110°
2026-05-08 07:03 47.58597 7.69971 12532 ft 362 kts 110°
2026-05-08 07:03 47.57773 7.73475 12047 ft 359 kts 110°
2026-05-08 07:04 47.56958 7.76938 11631 ft 354 kts 110°
2026-05-08 07:04 47.56154 7.80357 11224 ft 349 kts 110°
2026-05-08 07:04 47.55359 7.83726 10824 ft 345 kts 111°
2026-05-08 07:04 47.54571 7.87058 10431 ft 341 kts 111°
2026-05-08 07:05 47.53816 7.90272 10026 ft 322 kts 109°
2026-05-08 07:05 47.53494 7.93439 9705 ft 310 kts 86°
2026-05-08 07:05 47.53898 7.96562 9308 ft 307 kts 77°
2026-05-08 07:05 47.54408 7.99622 8941 ft 307 kts 76°
2026-05-08 07:06 47.54921 8.02678 8540 ft 302 kts 77°
2026-05-08 07:06 47.55356 8.05299 8253 ft 295 kts 77°
2026-05-08 07:06 47.55842 8.08252 7902 ft 294 kts 77°
2026-05-08 07:06 47.56322 8.11195 7569 ft 293 kts 77°
2026-05-08 07:07 47.56800 8.14139 7196 ft 293 kts 77°
2026-05-08 07:07 47.57266 8.17014 6849 ft 281 kts 77°
2026-05-08 07:07 47.57709 8.19761 6503 ft 269 kts 77°
2026-05-08 07:07 47.58138 8.22445 6256 ft 267 kts 77°
2026-05-08 07:08 47.58566 8.25115 5996 ft 265 kts 77°
2026-05-08 07:08 47.58992 8.27769 5689 ft 265 kts 77°
2026-05-08 07:08 47.59414 8.30423 5393 ft 264 kts 77°
2026-05-08 07:08 47.59831 8.33034 5037 ft 258 kts 78°
2026-05-08 07:09 47.59991 8.35603 4644 ft 245 kts 101°
2026-05-08 07:09 47.59320 8.37802 4370 ft 229 kts 128°
2026-05-08 07:09 47.58323 8.39560 4117 ft 216 kts 131°
2026-05-08 07:09 47.57310 8.41134 3874 ft 212 kts 136°
2026-05-08 07:10 47.56236 8.42624 3624 ft 211 kts 137°
2026-05-08 07:10 47.55148 8.44106 3321 ft 212 kts 137°
2026-05-08 07:10 47.54127 8.45504 3060 ft 190 kts 136°
2026-05-08 07:10 47.53196 8.46781 2806 ft 174 kts 136°
2026-05-08 07:11 47.52348 8.47939 2550 ft 161 kts 135°
2026-05-08 07:11 47.51584 8.48992 2350 ft 139 kts 135°
2026-05-08 07:11 47.50911 8.49912 2175 ft 131 kts 136°
2026-05-08 07:11 47.50218 8.50863 2017 ft 140 kts 136°
2026-05-08 07:12 47.49511 8.51837 1807 ft 137 kts 136°
2026-05-08 07:12 47.48806 8.52796 1633 ft 140 kts 136°
2026-05-08 07:12 47.48101 8.53759 1435 ft 135 kts 136°
2026-05-08 07:12 47.47476 8.54611 1406 ft 104 kts 137°
2026-05-08 07:13 47.47043 8.55199 1403 ft 72 kts 137°
2026-05-08 07:13 47.46753 8.55581 1408 ft 44 kts 146°
2026-05-08 07:13 47.46520 8.55704 1404 ft 27 kts 167°
2026-05-08 07:13 47.46375 8.55774 1412 ft 19 kts 144°
2026-05-08 07:14 47.46277 8.55901 1414 ft 19 kts 137°
2026-05-08 07:14 47.46200 8.55994 1416 ft 13 kts 160°
2026-05-08 07:14 47.46095 8.55989 1413 ft 17 kts 185°
2026-05-08 07:14 47.45979 8.55973 1412 ft 14 kts 187°
2026-05-08 07:15 47.45939 8.55887 1415 ft 11 kts 272°
2026-05-08 07:15 47.45946 8.55762 1408 ft 13 kts 275°
2026-05-08 07:15 47.45956 8.55625 1406 ft 13 kts 276°
2026-05-08 07:15 47.45968 8.55528 1412 ft 7 kts 306°
2026-05-08 07:16 47.46008 8.55522 1411 ft 6 kts
2026-05-08 07:16 47.46029 8.55525 1411 ft 2 kts
2026-05-08 07:16 47.46038 8.55527 1411 ft 1 kts
2026-05-08 07:16 47.46046 8.55528 1411 ft 1 kts
2026-05-08 07:17 47.46051 8.55529 1411 ft 0 kts